Regional Weather Roundup
Issued by NWS

Home | Current Version | Previous Version | Graphics & Text | Print | Product List | Glossary On
Versions: 1 2 3 4 5 6 7 8 9 10 11 12 13 14 15 16 17 18 19 20 21 22 23 24 25 26 27 28 29 30 31 32 33 34 35 36 37 38 39 40 41 42 43 44 45 46 47 48 49 50
000
ASUS43 KIND 221009
RWRIN

WEATHER ROUNDUP FOR INDIANA
NATIONAL WEATHER SERVICE INDIANAPOLIS IN
500 AM EST SUN JAN 22 2017

NOTE: "FAIR" INDICATES FEW OR NO CLOUDS BELOW 12,000 FEET WITH NO
SIGNIFICANT WEATHER AND/OR OBSTRUCTIONS TO VISIBILITY.

* - STATION DOES NOT REPORT WEATHER SUCH AS PRECIPITATION OR FOG.

+ - STATION NOT QUALITY CONTROLLED BY THE NATIONAL WEATHER SERVICE.
    USE DATA WITH CAUTION...ESPECIALLY DEWPOINT AND RELATIVE
    HUMIDITY OBSERVATIONS.

INZ001>003-010>013-019-020-221100-
NORTHWEST INDIANA

CITY           SKY/WX    TMP DP  RH WIND       PRES   REMARKS
KNOX *+        CLOUDY    37  32  81 CALM      29.55F VSB<1/4
LA PORTE +     FOG       38  38 100 N5        29.57S VSB 1/4
MICHIGAN CITY+ FOG       36  36 100 N3        29.59S VSB 1/4
MONTICELLO +   FOG       38  37  95 CALM      29.54S VSB 1/4
RENSSELAER +     N/A     37  37 100 NE6       29.55S FOG
VALPARAISO     FOG       36  36 100 N7        29.57F VSB 1/4

$$

LMZ046-743>745-221100-
SOUTHERN LAKE MICHIGAN

STATION/POSITION TIME  TEMP    WIND        PRES    WAVE
                       AIR SEA DIR/SP/G            HT
                 (UTC) (F)     (DEG/KT/KT) (MB)    (FT)
BURNS HARBOR     0940   35      70/  5/  6 1002.7F
MICHIGAN CITY    0940   35      30/  7/  7   N/A

$$

INZ004-005-014>016-021>024-221100-
NORTH CENTRAL INDIANA

CITY           SKY/WX    TMP DP  RH WIND       PRES   REMARKS
GOSHEN         FOG       37  35  92 CALM      29.55F VSB 1/4
LOGANSPORT +     N/A     43  41  93 SE6       29.56S FOG
PERU/GRISSOM   CLEAR     46  46 100 CALM      29.54S FOG
ROCHESTER +    FOG       37  37 100 CALM      29.55S VSB 1/4
SOUTH BEND     FOG       35  35 100 N5        29.57S VSB 1/4 WCI  31
WARSAW +       FOG       36  36 100 CALM      29.55F VSB<1/4

$$

INZ006>009-017-018-025>027-221100-
NORTHEAST INDIANA

CITY           SKY/WX    TMP DP  RH WIND       PRES   REMARKS
ANGOLA *+      CLOUDY    37  28  70 CALM      29.57S VSB 0
AUBURN +       CLOUDY    46  45  93 CALM      29.57F
FORT WAYNE     CLOUDY    50  47  89 SE5       29.56F
HUNTINGTON +   CLOUDY    48  47  95 CALM      29.55F
KENDALLVILLE + CLOUDY    47  47 100 CALM      29.56F

$$

INZ028-029-035-036-043>045-051>053-221100-
WEST CENTRAL INDIANA

CITY           SKY/WX    TMP DP  RH WIND       PRES   REMARKS
CRAWFORDSVL +  CLEAR     42  42 100 E7        29.54S
GREENCASTLE +  MOCLDY    46  46 100 CALM      29.56R
LAFAYETTE      FOG       41  41 100 CALM      29.54S VSB 1/4
TERRE HAUTE    CLOUDY    45  43  93 E3        29.53S

$$

INZ030>032-037>040-046>048-054>057-064-065-221100-
CENTRAL INDIANA

CITY           SKY/WX    TMP DP  RH WIND       PRES   REMARKS
CP ATTERBURY + MOCLDY    41  39  93 CALM      29.57S VSB 3/4
FISHERS *+     MOCLDY    48  48 100 E5        29.57R
FRANKFORT +    CLEAR     49  47  94 SE9       29.56S
GREENWOOD *+   CLEAR     49  49 100 N8        29.57R
INDIANAPOLIS   CLEAR     49  48  97 E8        29.55R
-EAGLE CREEK   PTCLDY    47  45  93 CALM      29.55S FOG
KOKOMO +       CLEAR     46  45  96 SE7       29.56S
MARION +       PTCLDY    46  46 100 SE9       29.57S
MT COMFORT *+  PTCLDY    46  46 100 E7        29.58R
SHELBYVILLE    CLEAR     46  43  89 E6        29.56R
ZIONSVILLE +   PTCLDY    49  47  94 E7        29.57R

$$

INZ033-034-041-042-049-050-058-059-221100-
EAST CENTRAL INDIANA

CITY           SKY/WX    TMP DP  RH WIND       PRES   REMARKS
MUNCIE         CLEAR     48  44  86 SE6       29.58S

$$

INZ060-061-067>069-081>083-085>088-221100-
SOUTHWEST INDIANA

CITY           SKY/WX    TMP DP  RH WIND       PRES   REMARKS
EVANSVILLE     PTCLDY    49  45  86 CALM      29.51F
HUNTINGBURG *+ PTCLDY    52  46  82 E6        29.51F
WASHINGTON +   PTCLDY    46  44  94 CALM      29.51S

$$

INZ062-063-066-070>080-084-089>092-221100-
SOUTH CENTRAL AND SOUTHEAST INDIANA

CITY           SKY/WX    TMP DP  RH WIND       PRES   REMARKS
BLOOMINGTON    CLEAR     40  38  93 CALM      29.53F
MADISON *+     PTCLDY    48  46  93 CALM      29.57S
NORTH VERNON + CLEAR    N/A N/A N/A NE3       29.56R HAZE
SEYMOUR +      PTCLDY    45  45 100 CALM      29.54F FOG

$$





USA.gov is the U.S. government's official web portal to all federal, state and local government web resources and services.